Location: Niverville
(49.6028°N, 97.0419°W)
Time: 01:26:57
(UTC-05:00)

Amateur Radio Satellites - All Passes

Search period start: 22 September 2017 00:56
Search period end: 23 September 2017 00:56
Location: Niverville, 49.6028°N, 97.0419°W

Satellite Date Start Highest point End Downlink Frequencies (MHz)
Time Altitude Azimuth
SPROUT 22 Sep 00:58:14 01:02:28 86° 257° (WSW) 01:06:45 437.525
QB50P2 22 Sep 00:59:28 01:03:30 38° 97° (E) 01:07:30 145.880/145.840
PRISM 22 Sep 01:04:54 01:08:10 24° 297° (WNW) 01:11:26 437.425
UNISAT 6 22 Sep 01:05:33 01:08:39 18° 301° (WNW) 01:11:46 437.425
LO-87 22 Sep 01:09:25 01:10:06 10° 272° (W) 01:10:47 145.935 - 145.965
BUGSAT 1 22 Sep 01:16:07 01:18:02 13° 88° (E) 01:19:57 437.445
M-CUBED/EXP-1 PRIME 22 Sep 01:22:01 01:22:46 11° 94° (E) 01:23:30 437.505
50 SAT 22 Sep 01:22:18 01:25:26 41° 71° (ENE) 01:28:36 437.505
TIGRISAT 22 Sep 01:30:47 01:32:42 12° 305° (NW) 01:34:38 435.000
ISS 22 Sep 01:32:49 01:36:05 58° 359° (N) 01:39:21 437.550
NANOSAT C BR1 22 Sep 01:36:54 01:41:11 75° 102° (ESE) 01:45:27 145.865
BEESAT 2 22 Sep 01:44:21 01:44:51 10° 351° (N) 01:45:22 435.950
ESTCUBE 1 22 Sep 01:46:10 01:47:12 11° 275° (W) 01:48:15 437.505/2401.250
UKube-1 22 Sep 01:55:55 02:00:08 56° 71° (ENE) 02:04:21 .
DX 1 22 Sep 01:58:33 02:02:54 87° 69° (ENE) 02:07:16 434.975-435.025
YUBILEINY 22 Sep 01:59:13 02:06:48 35° 277° (W) 02:14:25 435.215
Tancredo 1 22 Sep 01:59:58 02:02:40 68° 202° (SSW) 02:05:22 437.200
BEESAT 22 Sep 02:03:26 02:05:43 14° 54° (NE) 02:08:01 436.000
DUCHIFAT 1 22 Sep 02:06:35 02:10:48 63° 288° (WNW) 02:15:00 145.980
Oscar 19 22 Sep 02:12:37 02:16:52 25° 93° (E) 02:21:04 437.125/150
nSIGHT-1 22 Sep 02:16:17 02:19:32 64° 8° (N) 02:22:47 .
POLYITAN 1 22 Sep 02:17:27 02:21:29 40° 291° (WNW) 02:25:30 437.675
VELOX 1 22 Sep 02:21:12 02:24:23 19° 269° (W) 02:27:35 145.980
EO-79 22 Sep 02:22:24 02:26:20 36° 293° (WNW) 02:30:15 145.935-145.965
AIST 2D 22 Sep 02:28:56 02:29:36 10° 301° (WNW) 02:30:17 435.315
AO-85 22 Sep 02:32:20 02:32:50 10° 5° (N) 02:33:21 145.980
QB50P2 22 Sep 02:35:34 02:39:08 26° 296° (WNW) 02:42:41 145.880/145.840
PCSat 22 Sep 02:37:07 02:39:49 14° 257° (WSW) 02:42:31 145.827
SPROUT 22 Sep 02:38:33 02:39:03 10° 274° (W) 02:39:33 437.525
O/OREOS (USA 219) 22 Sep 02:43:36 02:46:28 17° 100° (E) 02:49:21 437.305
BUGSAT 1 22 Sep 02:49:42 02:53:54 76° 286° (WNW) 02:58:07 437.445
MOZHAYETS 4 22 Sep 02:50:03 02:53:59 28° 64° (ENE) 02:57:56
M-CUBED/EXP-1 PRIME 22 Sep 02:54:18 02:57:40 59° 294° (WNW) 03:00:54 437.505
50 SAT 22 Sep 02:56:17 02:58:10 14° 268° (W) 03:00:03 437.505
ITUPSAT 1 22 Sep 03:00:26 03:04:48 37° 65° (ENE) 03:09:12 437.325
ISS 22 Sep 03:09:24 03:12:43 86° 200° (SSW) 03:16:01 437.550
CUBESAT XI-V 22 Sep 03:13:17 03:15:31 13° 55° (NE) 03:17:45 437.345
NANOSAT C BR1 22 Sep 03:13:54 03:16:21 15° 302° (WNW) 03:18:49 145.865
BEESAT 3 22 Sep 03:19:53 03:22:28 16° 26° (NNE) 03:25:02 437.485
Gurwin Techsat 1B 22 Sep 03:20:48 03:26:06 64° 102° (ESE) 03:31:23 435.225
BEESAT 2 22 Sep 03:22:58 03:24:25 12° 15° (NNE) 03:25:50 435.950
UKube-1 22 Sep 03:33:33 03:36:30 18° 269° (W) 03:39:27 .
Tancredo 1 22 Sep 03:35:24 03:36:48 13° 220° (SW) 03:38:12 437.200
BEESAT 22 Sep 03:37:57 03:42:43 78° 73° (ENE) 03:47:30 436.000
DX 1 22 Sep 03:38:13 03:39:42 12° 273° (W) 03:41:12 434.975-435.025
AO-7 22 Sep 03:50:17 03:56:45 24° 90° (E) 04:03:11 .
Oscar 19 22 Sep 03:51:26 03:56:29 53° 292° (WNW) 04:01:29 437.125/150
nSIGHT-1 22 Sep 03:52:41 03:55:50 46° 208° (SSW) 03:58:58 .
AO-85 22 Sep 04:11:42 04:14:51 20° 29° (NNE) 04:18:08 145.980
RS-15 22 Sep 04:16:49 04:22:00 14° 91° (E) 04:27:11 29.354- 29.394
O/OREOS (USA 219) 22 Sep 04:20:51 04:25:20 67° 299° (WNW) 04:29:54 437.305
MOZHAYETS 4 22 Sep 04:26:37 04:30:59 41° 263° (W) 04:35:24
BUGSAT 1 22 Sep 04:27:23 04:28:32 11° 305° (NW) 04:29:40 437.445
ITUPSAT 1 22 Sep 04:38:23 04:42:39 32° 264° (W) 04:46:59 437.325
ISS 22 Sep 04:46:15 04:48:53 22° 218° (SW) 04:51:30 437.550
CUBESAT XI-V 22 Sep 04:47:25 04:52:08 80° 73° (ENE) 04:56:52 437.345
ITAMSAT 1 22 Sep 04:52:00 04:57:02 46° 99° (E) 05:02:02 435.822/435.867
BEESAT 3 22 Sep 04:56:48 05:00:48 63° 48° (NE) 05:04:43 437.485
BEESAT 2 22 Sep 04:59:45 05:03:24 30° 38° (NE) 05:07:00 435.950
KKS-1 22 Sep 04:59:59 05:04:12 44° 68° (ENE) 05:08:24 437.445
Gurwin Techsat 1B 22 Sep 05:01:29 05:05:39 24° 301° (WNW) 05:09:48 435.225
BEESAT 22 Sep 05:18:20 05:21:04 15° 272° (W) 05:23:50 436.000
STARS 22 Sep 05:29:43 05:33:44 38° 67° (ENE) 05:37:48 437.465
Oscar 19 22 Sep 05:33:43 05:34:42 11° 312° (NW) 05:35:41 437.125/150
AO-7 22 Sep 05:42:12 05:50:33 87° 291° (WNW) 05:58:52 .
DOVE 4 22 Sep 05:48:33 05:51:23 17° 91° (E) 05:54:15 437.250
AO-85 22 Sep 05:51:31 05:55:52 79° 50° (NE) 06:00:33 145.980
O/OREOS (USA 219) 22 Sep 06:03:23 06:05:41 14° 321° (NW) 06:08:00 437.305
RS-15 22 Sep 06:19:42 06:31:27 55° 115° (ESE) 06:43:12 29.354- 29.394
CUBESAT XI-V 22 Sep 06:27:33 06:30:06 14° 273° (W) 06:32:39 437.345
CUTE-I 22 Sep 06:28:38 06:31:21 14° 86° (E) 06:34:02 437.470
ITAMSAT 1 22 Sep 06:31:49 06:36:19 30° 298° (WNW) 06:40:48 435.822/435.867
BEESAT 3 22 Sep 06:35:14 06:37:56 18° 246° (WSW) 06:40:35 437.485
KKS-1 22 Sep 06:37:23 06:40:56 23° 266° (W) 06:44:30 437.445
BEESAT 2 22 Sep 06:37:24 06:41:17 44° 238° (WSW) 06:45:06 435.950
XW-2D 22 Sep 06:42:57 06:45:35 18° 91° (E) 06:48:12 145.860 - 145.880
XW-2B 22 Sep 06:54:56 06:58:00 22° 93° (E) 07:01:01 145.730 - 145.750
XW-2F 22 Sep 06:56:23 06:59:25 22° 93° (E) 07:02:24 145.980 - 146.000
HO-68 22 Sep 07:00:21 07:03:29 13° 82° (E) 07:06:38 435.675
STARS 22 Sep 07:06:30 07:10:11 26° 265° (W) 07:13:53 437.465
STRAND 1 22 Sep 07:11:47 07:16:31 40° 65° (ENE) 07:21:16 437.568
XW-2C 22 Sep 07:15:49 07:19:25 37° 97° (E) 07:22:58 145.795 - 145.815
NUDT-PHONESAT 22 Sep 07:25:15 07:28:43 34° 97° (E) 07:32:08 437.300
DOVE 4 22 Sep 07:25:20 07:29:25 54° 288° (WNW) 07:33:38 437.250
LilacSat-2 22 Sep 07:25:53 07:29:41 52° 100° (E) 07:33:25 437.200
AO-85 22 Sep 07:32:57 07:35:50 17° 247° (WSW) 07:38:50 145.980
AO-7 22 Sep 07:35:46 07:42:22 28° 314° (NW) 07:48:58 .
KAITUO 1B 22 Sep 07:50:47 07:54:34 70° 103° (ESE) 07:58:17 145.475/437.950
CUTE-I 22 Sep 08:06:50 08:12:12 85° 106° (ESE) 08:17:33 437.470
XW-2A 22 Sep 08:07:56 08:09:10 11° 89° (E) 08:10:24 145.665 - 145.685
XW-2D 22 Sep 08:16:20 08:20:00 44° 289° (WNW) 08:23:38 145.860 - 145.880
SEEDS 22 Sep 08:22:29 08:26:07 28° 94° (E) 08:29:42 437.485
FO-29 22 Sep 08:23:44 08:28:11 26° 61° (ENE) 08:32:27 435.910
ZACube-1 22 Sep 08:26:40 08:27:55 11° 85° (E) 08:29:09 437.345
XW-2B 22 Sep 08:28:45 08:32:16 34° 291° (WNW) 08:35:44 145.730 - 145.750
XW-2F 22 Sep 08:30:09 08:33:38 35° 291° (WNW) 08:37:05 145.980 - 146.000
RS-15 22 Sep 08:31:42 08:43:58 64° 321° (NW) 08:56:08 29.354- 29.394
HO-68 22 Sep 08:45:30 08:52:40 64° 103° (ESE) 08:59:48 435.675
CUTE 1.7 + AOD 2 22 Sep 08:46:51 08:51:08 76° 102° (ESE) 08:55:21 437.475
AAUSAT CUBESAT 2 22 Sep 08:50:23 08:53:50 25° 94° (E) 08:57:15 437.432
XW-2C 22 Sep 08:50:25 08:53:24 22° 296° (WNW) 08:56:21 145.795 - 145.815
STRAND 1 22 Sep 08:51:12 08:55:46 33° 264° (W) 09:00:22 437.568
UNISAT 6 22 Sep 08:56:23 08:58:53 15° 57° (ENE) 09:01:25 437.425
CUBEBUG 2 22 Sep 08:58:27 09:03:05 59° 101° (E) 09:07:46 437.445
NUDT-PHONESAT 22 Sep 08:59:28 09:02:25 22° 295° (WNW) 09:05:22 437.300
LilacSat-2 22 Sep 09:01:03 09:03:36 17° 298° (WNW) 09:06:06 437.200
UWE-3 22 Sep 09:08:57 09:13:27 46° 98° (E) 09:17:57 435.000/436.395/437.385
TIGRISAT 22 Sep 09:19:31 09:22:51 22° 61° (ENE) 09:26:14 435.000
KAITUO 1B 22 Sep 09:26:16 09:28:02 13° 301° (WNW) 09:29:47 145.475/437.950
AO-7 22 Sep 09:31:13 09:32:21 10° 340° (NNW) 09:33:28 .
XW-2A 22 Sep 09:38:51 09:42:15 57° 287° (WNW) 09:45:37 145.665 - 145.685
CUTE-I 22 Sep 09:48:01 09:51:36 19° 305° (NW) 09:55:11 437.470
SEEDS 22 Sep 09:58:03 10:01:50 33° 293° (WNW) 10:05:35 437.485
AO-73 22 Sep 09:58:28 10:03:03 71° 102° (ESE) 10:07:36 145.935
Oscar 11 22 Sep 09:59:36 10:03:53 52° 100° (E) 10:08:06 .
ZACube-1 22 Sep 10:00:17 10:04:55 82° 103° (ESE) 10:09:31 437.345
FO-29 22 Sep 10:07:31 10:13:05 55° 259° (W) 10:18:16 435.910
PRISM 22 Sep 10:22:10 10:26:08 50° 70° (ENE) 10:30:06 437.425
Max Valier Satellite 22 Sep 10:23:46 10:26:16 17° 91° (E) 10:28:46 145.860
CUTE 1.7 + AOD 2 22 Sep 10:24:02 10:26:24 15° 301° (WNW) 10:28:46 437.475
AAUSAT CUBESAT 2 22 Sep 10:25:36 10:29:22 35° 292° (WNW) 10:33:07 437.432
UNISAT 6 22 Sep 10:30:37 10:34:58 80° 255° (WSW) 10:39:28 437.425
DELFI C3 22 Sep 10:33:45 10:37:11 28° 95° (E) 10:40:35 145.870
HO-68 22 Sep 10:33:45 10:40:01 34° 304° (NW) 10:46:16 435.675
CUBEBUG 2 22 Sep 10:35:50 10:39:19 21° 299° (WNW) 10:42:50 437.445
UWE-3 22 Sep 10:45:51 10:49:40 26° 297° (WNW) 10:53:30 435.000/436.395/437.385
RS-15 22 Sep 10:47:52 10:59:16 40° 352° (N) 11:10:23 29.354- 29.394
TIGRISAT 22 Sep 10:55:00 10:59:13 50° 261° (W) 11:03:34 435.000
NANOSAT C BR1 22 Sep 10:59:47 11:01:48 13° 57° (ENE) 11:03:49 145.865
O/OREOS (USA 219) 22 Sep 11:09:05 11:11:33 14° 39° (NE) 11:14:01 437.305
YUBILEINY 22 Sep 11:17:38 11:21:29 14° 69° (ENE) 11:25:19 435.215
EO-88 22 Sep 11:27:11 11:30:51 63° 102° (ESE) 11:34:28 145.990 - 145.960
DUCHIFAT 1 22 Sep 11:27:46 11:30:54 21° 62° (ENE) 11:34:03 145.980
AIST 2D 22 Sep 11:31:19 11:34:48 54° 73° (ENE) 11:38:18 435.315
AO-73 22 Sep 11:35:45 11:38:46 18° 301° (WNW) 11:41:47 145.935
Oscar 11 22 Sep 11:36:26 11:39:41 21° 298° (WNW) 11:42:55 .
ZACube-1 22 Sep 11:37:52 11:40:36 16° 302° (WNW) 11:43:20 437.345
POLYITAN 1 22 Sep 11:38:27 11:42:10 31° 66° (ENE) 11:45:56 437.675
EO-79 22 Sep 11:43:05 11:46:54 34° 67° (ENE) 11:50:44 145.935-145.965
ESTCUBE 1 22 Sep 11:54:18 11:57:02 16° 89° (E) 11:59:46 437.505/2401.250
QB50P2 22 Sep 11:55:49 11:59:53 49° 70° (ENE) 12:04:00 145.880/145.840
Max Valier Satellite 22 Sep 11:56:44 12:00:21 45° 289° (WNW) 12:03:55 145.860
Oscar 19 22 Sep 11:58:43 12:00:10 11° 49° (NE) 12:01:37 437.125/150
PRISM 22 Sep 11:58:50 12:01:41 18° 268° (W) 12:04:33 437.425
DELFI C3 22 Sep 12:08:31 12:11:55 29° 293° (WNW) 12:15:18 145.870
M-CUBED/EXP-1 PRIME 22 Sep 12:09:11 12:13:06 38° 63° (ENE) 12:16:46 437.505
BUGSAT 1 22 Sep 12:09:46 12:12:19 16° 60° (ENE) 12:14:54 437.445
LO-87 22 Sep 12:28:27 12:31:56 44° 99° (E) 12:35:24 145.935 - 145.965
NANOSAT C BR1 22 Sep 12:32:42 12:36:54 86° 260° (W) 12:41:08 145.865
SPROUT 22 Sep 12:41:11 12:42:55 12° 87° (E) 12:44:39 437.525
O/OREOS (USA 219) 22 Sep 12:47:15 12:51:52 69° 61° (ENE) 12:56:27 437.305
EO-88 22 Sep 13:02:11 13:04:03 14° 300° (WNW) 13:05:54 145.990 - 145.960
DUCHIFAT 1 22 Sep 13:02:13 13:06:16 48° 260° (W) 13:10:22 145.980
RS-15 22 Sep 13:03:27 13:15:15 49° 26° (NNE) 13:26:29 29.354- 29.394
AO-7 22 Sep 13:05:40 13:10:34 17° 35° (NE) 13:15:28 .
AIST 2D 22 Sep 13:06:37 13:08:19 13° 271° (W) 13:10:01 435.315
Gurwin Techsat 1B 22 Sep 13:07:44 13:12:05 27° 60° (ENE) 13:16:28 435.225
YUBILEINY 22 Sep 13:07:52 13:16:21 61° 92° (E) 13:24:52 435.215
POLYITAN 1 22 Sep 13:14:12 13:17:55 30° 264° (W) 13:21:43 437.675
EO-79 22 Sep 13:19:06 13:22:41 27° 265° (W) 13:26:21 145.935-145.965
ESTCUBE 1 22 Sep 13:29:50 13:34:19 68° 288° (WNW) 13:38:47 437.505/2401.250
QB50P2 22 Sep 13:32:54 13:35:57 19° 269° (W) 13:39:02 145.880/145.840
Oscar 19 22 Sep 13:33:21 13:38:25 56° 69° (ENE) 13:43:31 437.125/150
BUGSAT 1 22 Sep 13:43:15 13:47:14 61° 259° (WSW) 13:51:18 437.445
M-CUBED/EXP-1 PRIME 22 Sep 13:44:01 13:47:35 26° 259° (WSW) 13:50:58 437.505
DX 1 22 Sep 13:44:40 13:45:47 11° 87° (E) 13:46:55 434.975-435.025
NO-84 22 Sep 13:50:29 13:52:49 16° 133° (SE) 13:55:03 435.350 FM
LO-87 22 Sep 14:02:40 14:05:03 17° 297° (WNW) 14:07:26 145.935 - 145.965
VELOX 1 22 Sep 14:05:00 14:09:21 58° 101° (E) 14:13:40 145.980
50 SAT 22 Sep 14:10:53 14:13:30 21° 95° (E) 14:16:04 437.505
SPROUT 22 Sep 14:15:05 14:19:24 82° 284° (WNW) 14:23:42 437.525
O/OREOS (USA 219) 22 Sep 14:27:50 14:30:44 17° 260° (W) 14:33:39 437.305
ITAMSAT 1 22 Sep 14:36:55 14:40:35 20° 56° (ENE) 14:44:14 435.822/435.867
SO-50 22 Sep 14:45:00 14:48:30 23° 115° (ESE) 14:52:01 436.795
Gurwin Techsat 1B 22 Sep 14:46:31 14:51:43 56° 259° (W) 14:56:59 435.225
AO-7 22 Sep 14:53:35 15:01:32 52° 59° (ENE) 15:09:28 .
YUBILEINY 22 Sep 15:05:45 15:13:40 37° 295° (WNW) 15:21:38 435.215
ESTCUBE 1 22 Sep 15:09:06 15:10:17 11° 307° (NW) 15:11:29 437.505/2401.250
Oscar 19 22 Sep 15:13:54 15:18:04 24° 268° (W) 15:22:16 437.125/150
UKube-1 22 Sep 15:14:14 15:18:28 54° 101° (E) 15:22:41 .
RS-15 22 Sep 15:16:49 15:28:56 81° 235° (SW) 15:40:23 29.354- 29.394
DX 1 22 Sep 15:18:16 15:22:38 88° 101° (E) 15:26:58 434.975-435.025
NO-84 22 Sep 15:26:09 15:29:50 79° 150° (SSE) 15:33:13 435.350 FM
BEESAT 22 Sep 15:35:01 15:37:35 14° 88° (E) 15:40:10 436.000
PCSat 22 Sep 15:37:47 15:42:46 39° 115° (ESE) 15:47:48 145.827
VELOX 1 22 Sep 15:42:16 15:45:25 20° 300° (WNW) 15:48:33 145.980
50 SAT 22 Sep 15:43:08 15:46:00 27° 293° (WNW) 15:48:53 437.505
SPROUT 22 Sep 15:52:56 15:54:35 12° 304° (NW) 15:56:14 437.525
ITAMSAT 1 22 Sep 16:14:19 16:19:30 76° 256° (WSW) 16:24:42 435.822/435.867
MOZHAYETS 4 22 Sep 16:16:56 16:21:11 34° 96° (E) 16:25:23
SO-50 22 Sep 16:24:10 16:28:36 60° 315° (NW) 16:33:05 436.795
ITUPSAT 1 22 Sep 16:33:39 16:38:18 46° 99° (E) 16:42:56 437.325
CUBESAT XI-V 22 Sep 16:40:53 16:43:29 15° 88° (E) 16:46:05 437.345
AO-7 22 Sep 16:46:28 16:54:24 47° 260° (W) 17:02:22 .
UKube-1 22 Sep 16:51:01 16:54:09 20° 300° (WNW) 16:57:17 .
DX 1 22 Sep 16:56:02 16:58:11 14° 304° (NW) 17:00:20 434.975-435.025
DOVE 4 22 Sep 16:57:56 17:01:43 29° 66° (ENE) 17:05:23 437.250
NO-84 22 Sep 17:04:12 17:07:27 35° 348° (NNW) 17:10:27 435.350 FM
BEESAT 22 Sep 17:11:10 17:15:59 82° 287° (WNW) 17:20:47 436.000
PCSat 22 Sep 17:20:57 17:26:08 44° 315° (NW) 17:31:22 145.827
XW-2D 22 Sep 17:28:25 17:31:01 18° 62° (ENE) 17:33:38 145.860 - 145.880
RS-15 22 Sep 17:30:37 17:39:29 26° 260° (W) 17:48:03 29.354- 29.394
HO-68 22 Sep 17:33:53 17:38:44 20° 47° (NE) 17:43:35 435.675
XW-2B 22 Sep 17:40:16 17:43:15 22° 64° (ENE) 17:46:15 145.730 - 145.750
XW-2F 22 Sep 17:41:19 17:44:15 21° 64° (ENE) 17:47:13 145.980 - 146.000
CUTE-I 22 Sep 17:53:53 17:58:39 35° 63° (ENE) 18:03:27 437.470
MOZHAYETS 4 22 Sep 17:54:08 17:58:19 33° 294° (WNW) 18:02:27
ITAMSAT 1 22 Sep 17:58:03 17:59:51 12° 275° (W) 18:01:39 435.822/435.867
XW-2C 22 Sep 18:00:54 18:04:25 34° 68° (ENE) 18:07:56 145.795 - 145.815
SO-50 22 Sep 18:06:49 18:09:57 18° 337° (NNW) 18:13:07 436.795
NUDT-PHONESAT 22 Sep 18:08:16 18:11:34 30° 68° (ENE) 18:14:55 437.300
CUTE 1.7 + AOD 2 22 Sep 18:10:16 18:12:15 13° 57° (ENE) 18:14:13 437.475
LilacSat-2 22 Sep 18:11:27 18:15:11 47° 71° (ENE) 18:18:57 437.200
ITUPSAT 1 22 Sep 18:11:53 18:15:55 27° 298° (WNW) 18:19:58 437.325
CUBESAT XI-V 22 Sep 18:16:46 18:21:26 76° 287° (WNW) 18:26:02 437.345
KKS-1 22 Sep 18:22:36 18:26:54 47° 100° (E) 18:31:12 437.445
CUBEBUG 2 22 Sep 18:27:28 18:29:00 12° 55° (NE) 18:30:33 437.445
KAITUO 1B 22 Sep 18:34:17 18:38:03 60° 73° (ENE) 18:41:49 145.475/437.950
DOVE 4 22 Sep 18:35:24 18:39:23 33° 264° (W) 18:43:14 437.250
NO-84 22 Sep 18:42:20 18:45:21 33° 9° (N) 18:48:10 435.350 FM
STARS 22 Sep 18:50:25 18:54:34 39° 98° (E) 18:58:42 437.465
BEESAT 22 Sep 18:50:31 18:53:02 14° 306° (NW) 18:55:32 436.000
XW-2D 22 Sep 19:01:06 19:04:51 50° 260° (W) 19:08:38 145.860 - 145.880
PCSat 22 Sep 19:07:34 19:10:57 16° 339° (NNW) 19:14:22 145.827
XW-2B 22 Sep 19:13:37 19:17:13 38° 263° (W) 19:20:52 145.730 - 145.750
XW-2F 22 Sep 19:14:33 19:18:10 39° 262° (W) 19:21:48 145.980 - 146.000
SEEDS 22 Sep 19:17:54 19:21:43 34° 67° (ENE) 19:25:33 437.485
HO-68 22 Sep 19:18:14 19:25:20 72° 68° (ENE) 19:32:30 435.675
AO-73 22 Sep 19:24:20 19:26:29 14° 56° (ENE) 19:28:40 145.935
ZACube-1 22 Sep 19:25:59 19:28:33 15° 57° (ENE) 19:31:07 437.345
Oscar 11 22 Sep 19:26:28 19:27:07 10° 54° (NE) 19:27:46 .
CUTE-I 22 Sep 19:33:41 19:38:39 40° 263° (W) 19:43:39 437.470
XW-2C 22 Sep 19:35:35 19:38:40 23° 267° (W) 19:41:47 145.795 - 145.815
NUDT-PHONESAT 22 Sep 19:42:19 19:45:27 25° 266° (W) 19:48:38 437.300
CUTE 1.7 + AOD 2 22 Sep 19:43:07 19:47:25 90° 78° (ENE) 19:51:45 437.475
AAUSAT CUBESAT 2 22 Sep 19:44:17 19:47:56 30° 66° (ENE) 19:51:34 437.432
LilacSat-2 22 Sep 19:47:06 19:49:43 17° 269° (W) 19:52:21 437.200
SO-50 22 Sep 19:50:18 19:52:11 12° 2° (N) 19:54:05 436.795
CUBESAT XI-V 22 Sep 19:56:05 19:58:00 12° 306° (NW) 19:59:54 437.345
KKS-1 22 Sep 19:59:41 20:03:13 23° 298° (WNW) 20:06:44 437.445
CUBEBUG 2 22 Sep 20:00:33 20:04:48 78° 75° (ENE) 20:09:14 437.445
UWE-3 22 Sep 20:09:49 20:14:04 59° 72° (ENE) 20:18:28 435.000/436.395/437.385
KAITUO 1B 22 Sep 20:10:30 20:12:25 13° 271° (W) 20:14:21 145.475/437.950
XW-2A 22 Sep 20:13:30 20:16:55 89° 256° (WSW) 20:20:23 145.665 - 145.685
NO-84 22 Sep 20:19:50 20:22:57 79° 211° (SSW) 20:25:52 435.350 FM
STARS 22 Sep 20:27:03 20:30:46 27° 297° (WNW) 20:34:28 437.465
BEESAT 3 22 Sep 20:27:41 20:30:59 25° 117° (ESE) 20:34:19 437.485
BEESAT 2 22 Sep 20:35:45 20:36:03 10° 109° (ESE) 20:36:21 435.950
SEEDS 22 Sep 20:53:45 20:57:26 28° 266° (W) 21:01:08 437.485
PCSat 22 Sep 20:54:25 20:56:43 13° 6° (N) 20:59:01 145.827
STRAND 1 22 Sep 20:56:20 21:01:27 62° 102° (ESE) 21:06:32 437.568
AO-73 22 Sep 20:57:40 21:02:00 89° 95° (E) 21:06:31 145.935
Oscar 11 22 Sep 20:58:05 21:02:25 67° 73° (ENE) 21:06:46 .
ZACube-1 22 Sep 20:59:52 21:04:12 79° 257° (WSW) 21:08:42 437.345
Max Valier Satellite 22 Sep 21:07:03 21:09:19 16° 61° (ENE) 21:11:36 145.860
HO-68 22 Sep 21:07:50 21:13:42 27° 269° (W) 21:19:38 435.675
FO-29 22 Sep 21:12:14 21:14:57 14° 87° (E) 21:17:46 435.910
YUBILEINY 22 Sep 21:18:57 21:20:22 10° 37° (NE) 21:21:45 435.215
AAUSAT CUBESAT 2 22 Sep 21:19:37 21:23:21 31° 265° (W) 21:27:04 437.432
CUTE 1.7 + AOD 2 22 Sep 21:22:44 21:23:54 11° 274° (W) 21:25:04 437.475
DELFI C3 22 Sep 21:22:56 21:26:24 30° 67° (ENE) 21:29:52 145.870
ISS 22 Sep 21:30:02 21:31:19 12° 136° (SE) 21:32:35 437.550
Tancredo 1 22 Sep 21:30:22 21:32:57 41° 152° (SSE) 21:35:33 437.200
SO-50 22 Sep 21:30:55 21:34:21 20° 26° (NNE) 21:37:48 436.795
CUBEBUG 2 22 Sep 21:40:07 21:42:04 13° 274° (W) 21:44:02 437.445
UWE-3 22 Sep 21:48:05 21:50:57 17° 271° (W) 21:53:53 435.000/436.395/437.385
AO-85 22 Sep 21:50:14 21:54:01 52° 124° (SE) 21:57:54 145.980
NO-84 22 Sep 21:58:47 21:59:44 11° 230° (SW) 22:00:39 435.350 FM
BEESAT 3 22 Sep 22:04:25 22:08:20 47° 316° (NW) 22:12:16 437.485
EO-88 22 Sep 22:08:32 22:12:05 50° 72° (ENE) 22:15:42 145.990 - 145.960
BEESAT 2 22 Sep 22:09:01 22:13:03 77° 126° (SE) 22:17:07 435.950
nSIGHT-1 22 Sep 22:09:44 22:12:26 25° 144° (SE) 22:15:10 .
UNISAT 6 22 Sep 22:18:31 22:21:37 17° 89° (E) 22:24:45 437.425
STRAND 1 22 Sep 22:36:13 22:40:14 23° 301° (WNW) 22:44:15 437.568
Oscar 11 22 Sep 22:36:27 22:39:01 15° 272° (W) 22:41:35 .
AO-73 22 Sep 22:37:27 22:38:57 11° 275° (W) 22:40:28 145.935
PCSat 22 Sep 22:37:53 22:42:11 23° 31° (NNE) 22:46:29 145.827
Max Valier Satellite 22 Sep 22:39:06 22:42:46 54° 260° (W) 22:46:27 145.860
TIGRISAT 22 Sep 22:41:56 22:45:51 26° 93° (E) 22:49:47 435.000
FO-29 22 Sep 22:55:25 23:00:49 84° 107° (ESE) 23:06:43 435.910
ESTCUBE 1 22 Sep 22:57:28 23:01:11 25° 63° (ENE) 23:04:54 437.505/2401.250
DELFI C3 22 Sep 22:57:43 23:01:09 28° 265° (W) 23:04:35 145.870
ISS 22 Sep 23:03:59 23:07:12 54° 154° (SSE) 23:10:27 437.550
Tancredo 1 22 Sep 23:04:46 23:07:27 59° 351° (N) 23:10:08 437.200
LO-87 22 Sep 23:08:24 23:11:38 34° 69° (ENE) 23:14:53 145.935 - 145.965
SO-50 22 Sep 23:10:58 23:15:33 73° 48° (NE) 23:20:11 436.795
YUBILEINY 22 Sep 23:12:24 23:20:27 39° 66° (ENE) 23:28:29 435.215
AO-85 22 Sep 23:31:20 23:34:39 26° 325° (NW) 23:38:05 145.980
VELOX 1 22 Sep 23:32:35 23:34:39 13° 56° (NE) 23:36:43 145.980
PRISM 22 Sep 23:34:03 23:37:57 43° 99° (E) 23:41:49 437.425
SPROUT 22 Sep 23:38:10 23:40:57 17° 60° (ENE) 23:43:44 437.525
EO-88 22 Sep 23:43:56 23:46:04 15° 270° (W) 23:48:11 145.990 - 145.960
BEESAT 3 22 Sep 23:44:36 23:46:49 14° 338° (NNW) 23:49:03 437.485
nSIGHT-1 22 Sep 23:45:16 23:48:31 86° 347° (NNW) 23:51:48 .
BEESAT 2 22 Sep 23:48:03 23:51:15 22° 328° (NNW) 23:54:28 435.950
UNISAT 6 22 Sep 23:54:08 23:58:46 66° 287° (WNW) 00:03:26 437.425
NANOSAT C BR1 23 Sep 00:14:29 00:15:59 12° 87° (E) 00:17:30 145.865
TIGRISAT 23 Sep 00:18:17 00:22:42 44° 291° (WNW) 00:27:09 435.000
PCSat 23 Sep 00:20:57 00:26:25 82° 54° (NE) 00:31:51 145.827
AIST 2D 23 Sep 00:25:04 00:28:22 36° 97° (E) 00:31:37 435.315
ESTCUBE 1 23 Sep 00:33:25 00:37:46 45° 261° (W) 00:42:08 437.505/2401.250
Tancredo 1 23 Sep 00:39:27 00:42:09 63° 10° (N) 00:44:50 437.200
UKube-1 23 Sep 00:39:45 00:41:25 12° 55° (NE) 00:43:04 .
ISS 23 Sep 00:40:26 00:43:42 61° 353° (N) 00:46:59 437.550
FO-29 23 Sep 00:41:49 00:45:23 18° 304° (WNW) 00:49:09 435.910
DUCHIFAT 1 23 Sep 00:42:09 00:45:16 20° 91° (E) 00:48:23 145.980
LO-87 23 Sep 00:42:34 00:45:10 19° 267° (W) 00:47:48 145.935 - 145.965
DX 1 23 Sep 00:43:15 00:46:14 18° 59° (ENE) 00:49:12 434.975-435.025
50 SAT 23 Sep 00:45:13 00:47:21 16° 63° (ENE) 00:49:28 437.505
